[Date Prev][Date Next][Thread Prev][Thread Next] - [Date Index][Thread Index][Author Index]
2 Line ISS Keps 11-9
- Subject: [sarex] 2 Line ISS Keps 11-9
- From: "Dave Larsen PhD" <doc@xxxxxxxxxxx>
- Date: Tue, 9 Nov 2004 03:31:47 -0800
ISS
1 25544U 98067A 04314.38320097 .00046001 00000-0 36736-3 0 1018
2 25544 51.6365 304.8555 0008397 336.1577 173.8212 15.70601672341127
----
Via the sarex mailing list at AMSAT.ORG courtesy of AMSAT-NA.
To unsubscribe, send "unsubscribe sarex" to Majordomo@amsat.org
AMSAT Home